Location: USNO
(38.9242°N, 77.0663°W)
Time: 02:01:37
(UTC-04:00)

Envisat - Pass Details

Date: 11 October 2017
Orbit: 764 x 766 km, 98.2° (Epoch: 16 October)

Event Time Altitude Azimuth Distance (km) Brightness Sun altitude
Exits shadow 22:10:56 16° 294° (WNW) 1,924 5.6 -41.6°
Drops below altitude 10° 22:12:38 10° 312° (NW) 2,306 6.1 -41.9°
Sets 22:15:37 0° 330° (NNW) 3,237 6.9 -42.4°
